Other Public Products
Issued by NWS Grand Forks, ND

Home | Current Version | Previous Version | Text Only | Print | Product List | Glossary Off
Versions: 1 2 3 4 5 6 7 8 9 10 11 12 13 14 15 16 17 18 19 20 21 22 23 24 25 26 27 28 29 30 31 32 33 34 35 36 37 38 39 40 41 42 43 44 45 46 47 48 49 50

000
FPUS83 KFGF 090510
OPUFGF
PRAIRIE TO PINES WEATHER ROUNDUP
NATIONAL WEATHER SERVICE EASTERN NORTH DAKOTA/GRAND FORKS ND
1100 PM CST THU DEC 08 2016

 **SATELLITE DATA USED TO AUGMENT SKY COVER AT AUTOMATED STATIONS**
 *****  WEATHER ACROSS EASTERN NORTH DAKOTA  *****

CITY           SKY/WX    TMP DP  RH WIND       PRES   REMARKS
GRAND FORKS    CLOUDY     9   2  73 NW10      30.58S WCI  -5
GRAND FORKS AF CLOUDY     7   0  72 NW8       30.58S WCI  -5
GRAND CITY NWS NOT AVBL
BUXTON         NOT AVBL
DEVILS LAKE    FLURRIES  -2  -5  87 W9        30.55F WCI -18
FARGO          CLOUDY     8   1  73 W7        30.59S WCI  -3
WAHPETON ARPT  CLOUDY     5   0  78 NW10      30.60S WCI -10
$$

 *****  WEATHER ACROSS CENTRAL AND WESTERN NORTH DAKOTA  *****

CITY           SKY/WX    TMP DP  RH WIND       PRES   REMARKS
JAMESTOWN      CLEAR     -5 -10  79 NW14      30.56S WCI -25
BISMARCK       CLOUDY    -4  -9  79 W7        30.60S WCI -18
MINOT          CLOUDY    -7 -12  79 W10       30.56S WCI -25
MINOT AFB      CLOUDY    -9 -14  77 NW10      30.56S WCI -27
GARRISON         N/A    -11 -16  78 NW9       30.55S WCI -29
WILLISTON      CLOUDY   -14 -19  79 CALM      30.57F
DICKINSON      CLOUDY   -15 -20  78 W3        30.47S
HETTINGER      CLOUDY   -20 -23  86 CALM      30.49F
$$

 *****  OTHER OBSERVATIONS NORTHEAST NORTH DAKOTA  *****

CITY           SKY/WX    TMP DP  RH WIND       PRES   REMARKS
WALHALLA         N/A      7   7 100 NW6       30.57S WCI  -3
LANGDON        FLURRIES   3   0  85 NW10      30.51S WCI -12
CAVALIER         N/A      9   1  72 W6        30.58S WCI  -1
GRAFTON        CLOUDY     9   3  78 NW5       30.60S WCI   0
CANDO          MOCLDY     0  -2  92 NW12      30.57S WCI -18
FORT TOTTEN      N/A      0  -3  85 NW5       29.95S WCI -10
ROLLA          FAIR      -8 -11  84 CALM      30.52R
RUGBY            N/A     -4  -9  77 W9        30.56S WCI -20
 ***** THE ABOVE OBSERVATIONS ARE NON NWS ARE NOT QUALITY
        CONTROLLED AND MAY MIS-REPORT RAIN FOR SNOW...
$$

 *****  OTHER OBSERVATIONS SOUTHEAST NORTH DAKOTA *****

CITY           SKY/WX    TMP DP  RH WIND       PRES   REMARKS
COOPERSTOWN    CLOUDY     0  -4  85 W10       30.56R WCI -17
VALLEY CITY    CLOUDY     0  -4  85 NW8       30.58S WCI -15
OAKES          NOT AVBL
GWINNER        FAIR       1  -4  78 NW10      30.59S WCI -14
SHEYENNE NWR     N/A     -1  -8  70 W6        29.95S WCI -13
BUFFALO        NOT AVBL
WYNDMERE       NOT AVBL
 ***** THE ABOVE OBSERVATIONS ARE NON NWS ARE NOT QUALITY
       CONTROLLED AND MAY MIS-REPORT RAIN FOR SNOW...
$$

  *****  WEATHER ACROSS NORTHERN MINNESOTA  *****

CITY           SKY/WX    TMP DP  RH WIND       PRES   REMARKS
FLAG ISLAND    CLOUDY     9   3  78 W17       30.48S WCI -10
WARROAD        CLOUDY     3   0  85 NW12      30.51S WCI -13
ROSEAU         MOCLDY     0  -4  85 W5        30.53S WCI -10
HALLOCK        CLOUDY     9   3  78 N7        30.57S WCI  -3
THF RVR FALLS  CLOUDY     3   0  87 NW6       30.55S WCI  -8
HALSTAD          N/A      9   3  78 NW8         N/A  WCI  -3
FOSSTON        FLURRIES   3   1  92 NW7       30.52S WCI  -9
BAUDETTE       FLURRIES   7   2  80 W12       30.47R WCI  -8
WASKISH        MOCLDY     9   7  92 NW7       30.48R WCI  -3
CROOKSTON      CLOUDY     9   3  78 N7        30.58S WCI  -3
$$
  *****  WEATHER ACROSS CENTRAL AND WEST MINNESOTA  *****

CITY           SKY/WX    TMP DP  RH WIND       PRES   REMARKS
BEMIDJI        FLURRIES   9   5  86 NW9       30.47R WCI  -5
PARK RAPIDS    CLOUDY    11   4  73 NW12      30.47S WCI  -3
WADENA         LGT SNOW   9   7  92 W7        30.50R WCI  -3
DETROIT LAKES  LGT SNOW   9   7  92 NW12      30.52S WCI  -6
MOORHEAD       MIX PCPN   7   1  78 W8        30.59S WCI  -6
FERGUS FALLS   LGT SNOW   3   0  85 NW9       30.62S WCI -11
ELBOW LAKE     FAIR       2  -1  85 NW12      30.57S WCI -14
MORRIS MN      CLEAR      3   0  85 NW9       30.57S WCI -11
STAPLES        CLOUDY    10   7  85 W9        30.49S WCI  -2
WHEATON        CLOUDY     3   0  85 W12       30.62S WCI -13
$$
  *****  WEATHER ELSEWHERE ACROSS MINNESOTA  *****

CITY           SKY/WX    TMP DP  RH WIND       PRES   REMARKS
DULUTH         MOCLDY    14   8  77 NW9       30.39R WCI   2
INTRNTL FALLS  CLOUDY    10   4  76 W7        30.44R WCI  -1
ELY            FLURRIES  10   7  85 W5        30.38R WCI   2
CLOQUET        PTCLDY    12   5  73 NW13      30.42S WCI  -3
BRAINERD       MOCLDY    12  10  92 W6        30.48S WCI   3
HIBBING        PTCLDY     8   2  76 NW13      30.42R WCI  -8
ALEXANDRIA     CLEAR      5   2  87 W12       30.52R WCI -11
SAINT CLOUD    CLEAR     11   8  88 NW8       30.51R WCI  -1
MINNEAPOLIS    CLOUDY    19  10  68 NW14      30.51R WCI   6
$$

  *****  WEATHER ACROSS SOUTH DAKOTA  *****

CITY           SKY/WX    TMP DP  RH WIND       PRES   REMARKS
SIOUX FALLS    CLEAR      5   2  87 CALM      30.59S
BROOKINGS      NOT AVBL
WATERTOWN      CLEAR      0  -4  83 NW8       30.53F WCI -14
HURON          CLEAR     -2  -5  87 NW8       30.63S WCI -17
SISSETON         N/A      1  -5  75 NW10      30.59S WCI -15
ABERDEEN       CLEAR     -6 -10  83 W7        30.63R WCI -20
MITCHELL       CLEAR      2  -2  83 NW7       30.65S WCI -11
PIERRE         CLOUDY     3  -2  79 NE5       30.59S WCI  -6
MOBRIDGE       CLOUDY    -3  -9  75 NW3       30.55F
RAPID CITY     CLOUDY    -4 -10  75 CALM      30.40F
$$

  *****  SOME WEATHER IN NEARBY STATES *****

CITY           SKY/WX    TMP DP  RH WIND       PRES   REMARKS
GLASGOW MT     PTCLDY    -4 -10  75 NE10      30.51R WCI -21
GREAT FALLS MT CLOUDY    -3  -8  79 NE6       30.30F WCI -15
CHEYENNE WY    CLOUDY     8   3  80 S8        30.12F WCI  -4
SCOTTSBLUFF NE CLOUDY     6  -1  73 E12       30.30F WCI  -9
OMAHA NE       CLEAR     14   5  67 N8        30.65S WCI   3
DES MOINES IA  PTCLDY    17   9  70 NW13      30.59R WCI   4
DAVENPORT IA   CLOUDY    21  12  68 NW16      30.50S WCI   7
CHICAGO IL     PTCLDY    22  16  78 W10       30.40R WCI  11
EAU CLAIRE WI  CLOUDY    21  14  74 NW9       30.43R WCI  11
LA CROSSE WI   CLOUDY    24  16  71 NW12      30.47R WCI  13
$$

  *****  SOME NATIONAL WEATHER *****

CITY           SKY/WX    TMP DP  RH WIND       PRES   REMARKS
LA GUARDIA NY  PTCLDY    36  17  46 W17G28    29.99S
RALEIGH NC     PTCLDY    39  11  31 NW5       30.24R
ATLANTA GA     PTCLDY    36  18  48 NW10      30.36S
NEW ORLEANS LA CLOUDY    47  30  51 NE12G25   30.44F
OKLAHOMA CITY  CLOUDY    29   7  39 N8        30.66R WCI  21
ALBUQUERQUE NM CLOUDY    27  16  63 SE7       30.36S WCI  19
SALT LAKE CITY CLOUDY    28  23  81 NW7       30.18R WCI  21
LOS ANGELES CA PTCLDY    59  53  80 CALM      30.25R
BOISE ID       CLOUDY    28  25  88 S12       30.07R WCI  18
SEATTLE WA     LGT SNOW  30  26  85 E14       29.93S FOG     WCI  19
$$

*** WEATHER ACROSS MANITOBA...SASKATCHEWAN AND ONTARIO ***
                ***ONTARIO***

CITY           SKY/WX    TMP DP  RH WIND       PRES   REMARKS
GERALDTON      FLURRIES  10   7  85 NW10      30.25R WCI  -3
THUNDER BAY    FLURRIES  16  10  79 NW12G18   30.36R WCI   3
SIOUX LOOKOUT  FLURRIES   9   5  85 NE3       30.38S
TORONTO        PTCLDY    25  16  68 W10       30.04R WCI  15
BIG TROUT LK   FLURRIES   3   0  85 NW13G21   30.37S WCI -14
PICKLE LAKE    NOT AVBL
DRYDEN         FLURRIES   9   7  92 W6        30.38S WCI  -1
KENORA         FLURRIES   7   3  85 NW7       30.43S WCI  -5
$$
                *** MANITOBA***

CITY           SKY/WX    TMP DP  RH WIND       PRES   REMARKS
BRANDON        CLEAR     -9 -15  77 W9        30.56S WCI -27
DAUPHIN        FLURRIES  -4  -8  84 W7        30.60S WCI -18
ISLAND LAKE    NOT AVBL
PILOT MOUND      N/A     -2  -6  84 NW9         N/A  WCI -18
THE PAS        CLOUDY    -2  -9  71 N9        30.62S WCI -18
THOMPSON       CLEAR    -18 -26  69 NW5       30.59S WCI -31
WINNIPEG       CLOUDY     3  -4  72 N16       30.58S WCI -16
LYNN LAKE      CLEAR    -18 -24  76 NW8       30.62S WCI -37
CHURCHILL      LGT SNOW  -6  -9  84 NW18G26   30.53F BLWGSNOWWCI -29
GILLAM         FLURRIES -13 -17  84 NW10      30.54F WCI -32
$$
                ***SASKATCHEWAN***

CITY           SKY/WX    TMP DP  RH WIND       PRES   REMARKS
ESTEVAN        CLEAR    -17 -22  76 W8        30.55S WCI -34
KINDERSLEY     CLOUDY    -8 -13  77 NW3       30.55S
LLOYDMINSTER   MOCLDY   -13 -18  77 N3        30.58S
PRINCE ALBERT  CRYSTALS -15 -20  76 W6        30.64F WCI -29
REGINA         CLEAR    -11 -17  77 NW5       30.57S WCI -23
YORKTON        CLOUDY   -11 -15  84 NW10      30.55S WC1F1C2F2C3F3C4F4C5F5C6F6C7F7C8F8C9F9CaFaCbFbCcFcCdFdCe!



USA.gov is the U.S. government's official web portal to all federal, state and local government web resources and services.